{"data":{"norad_id":61632,"intl_designator":"2024-191M","name":"STARLINK-32455","alt_names":[],"object_type":"PAYLOAD","status":"ACTIVE","operator":null,"country":"US","launch_date":"2024-10-23","launch_site_code":"AFETR","launch_vehicle":null,"mission":null,"orbit_class":"UNKNOWN","rcs_meters":null,"size_class":null,"mass_kg":null,"dimensions":null,"purposes":["comms"],"wikipedia_slug":null,"has_3d_model":false,"image_url":null,"decayed_at":null,"tle_current":{"epoch":"2026-09-21T00:04:27.705216Z","epoch_age_seconds":148559,"freshness":"FRESH","line1":"1 61632U 24191M   26264.00309844 -.00000341  00000+0 -28803-5 0  9998","line2":"2 61632  43.0005 135.2337 0001117 273.1694  86.9029 15.27576316107362","mean_motion":15.27576316,"eccentricity":0.0001117,"inclination_deg":43.0005,"raan_deg":135.2337,"arg_perigee_deg":273.1694,"mean_anomaly_deg":86.9029,"bstar":-2.8803e-6,"rev_number":10736,"period_min":94.266976053326,"perigee_km":482.29373156402,"apogee_km":483.82652300225,"semimajor_km":6861.1971272831,"source":"CELESTRAK","updated_at":"2026-09-22T09:00:49.397078Z"}}}